| time (UTC) | temp C | wind direction | speed KPH | gust KPH | rain 1hr cm | rain 24hr cm | rain mn cm | humidity % | barometer mb |
| 20260503021852 | 2 | 62 | 0.0 | 0.0 | 0.00 | 0.00 | 0.00 | 85 | 1014.2 |
| 20260503021349 | 2 | 62 | 0.0 | 0.0 | 0.00 | 0.00 | 0.00 | 82 | 1014.2 |
| 20260503020846 | 2 | 62 | 0.0 | 0.0 | 0.00 | 0.00 | 0.00 | 74 | 1014.2 |
| 20260503020344 | 2 | 62 | 0.0 | 0.0 | 0.00 | 0.00 | 0.00 | 72 | 1013.9 |
| 20260503015840 | 2 | 62 | 0.0 | 0.0 | 0.00 | 0.00 | 0.00 | 74 | 1013.9 |
| 20260503015337 | 2 | 62 | 0.0 | 0.0 | 0.00 | 0.00 | 0.00 | 75 | 1013.9 |
| 20260503014833 | 2 | 62 | 0.0 | 0.0 | 0.00 | 0.00 | 0.00 | 73 | 1014.2 |
| 20260503014331 | 3 | 62 | 0.0 | 0.0 | 0.00 | 0.00 | 0.00 | 73 | 1013.8 |
| 20260503013828 | 3 | 62 | 0.0 | 0.0 | 0.00 | 0.00 | 0.00 | 74 | 1014.1 |
| 20260503013325 | 3 | 62 | 0.0 | 0.0 | 0.00 | 0.00 | 0.00 | 68 | 1014.1 |
| 20260503012822 | 3 | 62 | 0.0 | 0.0 | 0.00 | 0.00 | 0.00 | 66 | 1014.1 |
| 20260503012320 | 3 | 62 | 0.0 | 0.0 | 0.00 | 0.00 | 0.00 | 66 | 1013.8 |
| 20260503011816 | 3 | 62 | 0.0 | 0.0 | 0.00 | 0.00 | 0.00 | 62 | 1013.8 |
| 20260503011313 | 4 | 62 | 0.0 | 0.0 | 0.00 | 0.00 | 0.00 | 64 | 1013.9 |
| 20260503010809 | 4 | 62 | 0.0 | 0.0 | 0.00 | 0.00 | 0.00 | 66 | 1013.8 |
| 20260503010307 | 5 | 62 | 0.0 | 1.6 | 0.00 | 0.00 | 0.00 | 64 | 1013.8 |
| 20260503005804 | 5 | 62 | 0.0 | 1.6 | 0.00 | 0.00 | 0.00 | 65 | 1013.7 |
| 20260503005304 | 5 | 62 | 0.0 | 0.0 | 0.00 | 0.00 | 0.00 | 64 | 1014.1 |
| 20260503004756 | 5 | 62 | 0.0 | 1.6 | 0.00 | 0.00 | 0.00 | 63 | 1013.8 |
| 20260503004255 | 6 | 62 | 0.0 | 1.6 | 0.00 | 0.00 | 0.00 | 59 | 1013.6 |
| 20260503003752 | 6 | 62 | 1.6 | 3.2 | 0.00 | 0.00 | 0.00 | 58 | 1013.9 |
| 20260503003249 | 6 | 61 | 1.6 | 1.6 | 0.00 | 0.00 | 0.00 | 60 | 1013.8 |
| 20260503002745 | 7 | 69 | 3.2 | 3.2 | 0.00 | 0.00 | 0.00 | 55 | 1014.1 |
| 20260503002243 | 7 | 49 | 3.2 | 3.2 | 0.00 | 0.00 | 0.00 | 44 | 1014.2 |
| 20260503001739 | 7 | 50 | 4.8 | 8.0 | 0.00 | 0.00 | 0.00 | 41 | 1014.1 |
| 20260503001235 | 8 | 56 | 4.8 | 4.8 | 0.00 | 0.00 | 0.00 | 45 | 1014.3 |
| 20260503000733 | 8 | 48 | 3.2 | 3.2 | 0.00 | 0.00 | 0.00 | 38 | 1014.2 |
| 20260503000233 | 8 | 56 | 4.8 | 4.8 | 0.00 | 0.00 | 0.00 | 37 | 1014.1 |
| 20260502235727 | 8 | 61 | 4.8 | 8.0 | 0.00 | 0.00 | 0.00 | 38 | 1014.4 |
| 20260502235225 | 9 | 48 | 1.6 | 3.2 | 0.00 | 0.00 | 0.00 | 37 | 1014.4 |
| 20260502234721 | 8 | 122 | 1.6 | 4.8 | 0.00 | 0.00 | 0.00 | 37 | 1014.5 |
| 20260502234218 | 8 | 77 | 0.0 | 3.2 | 0.00 | 0.00 | 0.00 | 39 | 1014.6 |
| 20260502233714 | 8 | 53 | 1.6 | 4.8 | 0.00 | 0.00 | 0.00 | 38 | 1014.7 |
| 20260502233211 | 9 | 53 | 1.6 | 8.0 | 0.00 | 0.00 | 0.00 | 38 | 1014.5 |
| 20260502232707 | 10 | 36 | 1.6 | 3.2 | 0.00 | 0.00 | 0.00 | 36 | 1014.6 |
| 20260502232204 | 10 | 224 | 3.2 | 3.2 | 0.00 | 0.00 | 0.00 | 35 | 1014.6 |
| 20260502231701 | 9 | 75 | 1.6 | 3.2 | 0.00 | 0.00 | 0.00 | 37 | 1014.6 |
| 20260502231159 | 9 | 61 | 3.2 | 3.2 | 0.00 | 0.00 | 0.00 | 36 | 1014.7 |
| 20260502230657 | 9 | 58 | 3.2 | 4.8 | 0.00 | 0.00 | 0.00 | 37 | 1014.7 |
| 20260502230155 | 9 | 66 | 4.8 | 4.8 | 0.00 | 0.00 | 0.00 | 36 | 1014.6 |
| 20260502225650 | 9 | 54 | 3.2 | 8.0 | 0.00 | 0.00 | 0.00 | 36 | 1014.9 |
| 20260502225148 | 8 | 60 | 1.6 | 8.0 | 0.00 | 0.00 | 0.00 | 39 | 1014.8 |
| 20260502224644 | 8 | 50 | 8.0 | 11.3 | 0.00 | 0.00 | 0.00 | 37 | 1014.7 |
| 20260502224141 | 9 | 49 | 6.4 | 9.7 | 0.00 | 0.00 | 0.00 | 38 | 1014.8 |
| 20260502223639 | 10 | 181 | 1.6 | 9.7 | 0.00 | 0.00 | 0.00 | 36 | 1015.0 |
| 20260502223137 | 10 | 251 | 1.6 | 1.6 | 0.00 | 0.00 | 0.00 | 34 | 1014.8 |
| 20260502222634 | 10 | 348 | 1.6 | 4.8 | 0.00 | 0.00 | 0.00 | 35 | 1015.1 |
| 20260502222125 | 10 | 311 | 3.2 | 4.8 | 0.00 | 0.00 | 0.00 | 36 | 1015.2 |
| 20260502221620 | 10 | 214 | 8.0 | 9.7 | 0.00 | 0.00 | 0.00 | 35 | 1014.9 |
| 20260502221118 | 10 | 28 | 3.2 | 3.2 | 0.00 | 0.00 | 0.00 | 33 | 1015.1 |
| 20260502220614 | 10 | 309 | 1.6 | 3.2 | 0.00 | 0.00 | 0.00 | 33 | 1015.2 |
| 20260502220110 | 10 | 233 | 1.6 | 9.7 | 0.00 | 0.00 | 0.00 | 38 | 1015.2 |
| 20260502215607 | 9 | 264 | 6.4 | 11.3 | 0.00 | 0.00 | 0.00 | 35 | 1015.2 |
| 20260502215104 | 9 | 276 | 6.4 | 11.3 | 0.00 | 0.00 | 0.00 | 35 | 1015.3 |
| 20260502214601 | 10 | 272 | 6.4 | 8.0 | 0.00 | 0.00 | 0.00 | 39 | 1015.3 |
| 20260502214058 | 10 | 336 | 4.8 | 4.8 | 0.00 | 0.00 | 0.00 | 36 | 1015.5 |
| 20260502213555 | 10 | 269 | 6.4 | 8.0 | 0.00 | 0.00 | 0.00 | 39 | 1015.4 |
| 20260502213053 | 10 | 265 | 11.3 | 12.9 | 0.00 | 0.00 | 0.00 | 39 | 1015.7 |
| 20260502212552 | 9 | 322 | 4.8 | 11.3 | 0.00 | 0.00 | 0.00 | 35 | 1015.5 |
| 20260502212049 | 9 | 253 | 9.7 | 17.7 | 0.00 | 0.00 | 0.00 | 35 | 1015.4 |
| 20260502211544 | 9 | 251 | 4.8 | 14.5 | 0.00 | 0.00 | 0.00 | 33 | 1015.7 |
| 20260502211042 | 10 | 312 | 3.2 | 4.8 | 0.00 | 0.00 | 0.00 | 35 | 1015.5 |
| 20260502210539 | 10 | 244 | 4.8 | 9.7 | 0.00 | 0.00 | 0.00 | 35 | 1015.8 |
| 20260502210036 | 9 | 278 | 11.3 | 12.9 | 0.00 | 0.00 | 0.00 | 37 | 1015.8 |
| 20260502205532 | 10 | 266 | 12.9 | 16.1 | 0.00 | 0.00 | 0.00 | 36 | 1015.9 |
| 20260502205030 | 10 | 315 | 8.0 | 11.3 | 0.00 | 0.00 | 0.00 | 34 | 1015.7 |
| 20260502204526 | 9 | 266 | 6.4 | 12.9 | 0.00 | 0.00 | 0.00 | 33 | 1016.0 |
| 20260502204024 | 9 | 48 | 6.4 | 9.7 | 0.00 | 0.00 | 0.00 | 33 | 1015.9 |
| 20260502203521 | 10 | 301 | 9.7 | 14.5 | 0.00 | 0.00 | 0.00 | 34 | 1016.1 |
| 20260502203018 | 9 | 230 | 4.8 | 8.0 | 0.00 | 0.00 | 0.00 | 35 | 1016.2 |
| 20260502202514 | 9 | 255 | 9.7 | 16.1 | 0.00 | 0.00 | 0.00 | 32 | 1016.3 |
| 20260502202013 | 8 | 338 | 9.7 | 12.9 | 0.00 | 0.00 | 0.00 | 37 | 1016.2 |
| 20260502201508 | 9 | 245 | 8.0 | 12.9 | 0.00 | 0.00 | 0.00 | 34 | 1016.1 |
| 20260502201005 | 8 | 284 | 3.2 | 12.9 | 0.00 | 0.00 | 0.00 | 33 | 1016.4 |
| 20260502200501 | 8 | 330 | 6.4 | 9.7 | 0.00 | 0.00 | 0.00 | 35 | 1016.3 |
| 20260502195959 | 8 | 283 | 11.3 | 16.1 | 0.00 | 0.00 | 0.00 | 37 | 1016.5 |
| 20260502195456 | 8 | 264 | 3.2 | 14.5 | 0.00 | 0.00 | 0.00 | 37 | 1016.5 |
| 20260502194952 | 8 | 305 | 8.0 | 11.3 | 0.00 | 0.00 | 0.00 | 42 | 1016.6 |
| 20260502194449 | 8 | 316 | 4.8 | 8.0 | 0.00 | 0.00 | 0.00 | 41 | 1016.7 |
| 20260502193944 | 8 | 305 | 9.7 | 17.7 | 0.00 | 0.00 | 0.00 | 40 | 1017.0 |
| 20260502193442 | 8 | 218 | 17.7 | 17.7 | 0.00 | 0.00 | 0.00 | 38 | 1016.7 |
| 20260502192938 | 7 | 42 | 3.2 | 16.1 | 0.00 | 0.00 | 0.00 | 38 | 1016.9 |
| 20260502192435 | 8 | 230 | 19.3 | 22.5 | 0.00 | 0.00 | 0.00 | 37 | 1016.7 |
| 20260502191931 | 8 | 294 | 4.8 | 9.7 | 0.00 | 0.00 | 0.00 | 40 | 1017.0 |
| 20260502191429 | 8 | 298 | 8.0 | 12.9 | 0.00 | 0.00 | 0.00 | 43 | 1016.9 |
| 20260502190927 | 8 | 239 | 8.0 | 24.1 | 0.00 | 0.00 | 0.00 | 39 | 1017.0 |
| 20260502190424 | 8 | 310 | 8.0 | 14.5 | 0.00 | 0.00 | 0.00 | 41 | 1016.8 |
| 20260502185920 | 8 | 265 | 9.7 | 14.5 | 0.00 | 0.00 | 0.00 | 37 | 1017.0 |
| 20260502185415 | 7 | 261 | 6.4 | 11.3 | 0.00 | 0.00 | 0.00 | 40 | 1017.3 |
| 20260502184913 | 7 | 250 | 17.7 | 20.9 | 0.00 | 0.00 | 0.00 | 39 | 1017.2 |
| 20260502184408 | 7 | 307 | 6.4 | 12.9 | 0.00 | 0.00 | 0.00 | 37 | 1017.2 |
| 20260502183905 | 8 | 270 | 14.5 | 17.7 | 0.00 | 0.00 | 0.00 | 38 | 1017.3 |
| 20260502183401 | 8 | 270 | 12.9 | 20.9 | 0.00 | 0.00 | 0.00 | 40 | 1017.5 |
| 20260502182856 | 8 | 275 | 9.7 | 16.1 | 0.00 | 0.00 | 0.00 | 37 | 1017.3 |
| 20260502182352 | 7 | 285 | 14.5 | 17.7 | 0.00 | 0.00 | 0.00 | 37 | 1017.1 |
| 20260502181848 | 8 | 301 | 9.7 | 16.1 | 0.00 | 0.00 | 0.00 | 37 | 1017.2 |
| 20260502181347 | 7 | 250 | 9.7 | 16.1 | 0.00 | 0.00 | 0.00 | 37 | 1017.3 |
| 20260502180845 | 7 | 305 | 9.7 | 12.9 | 0.00 | 0.00 | 0.00 | 39 | 1017.2 |
| 20260502180342 | 8 | 291 | 8.0 | 16.1 | 0.00 | 0.00 | 0.00 | 37 | 1017.4 |
| 20260502170301 | 7 | 232 | 11.3 | 17.7 | 0.00 | 0.00 | 0.00 | 41 | 1017.7 |
| 20260502164248 | 7 | 250 | 11.3 | 22.5 | 0.00 | 0.00 | 0.00 | 37 | 1017.8 |
| 20260502163744 | 7 | 274 | 12.9 | 16.1 | 0.00 | 0.00 | 0.00 | 37 | 1017.8 |
| 20260502163241 | 7 | 236 | 17.7 | 22.5 | 0.00 | 0.00 | 0.00 | 38 | 1017.8 |
| 20260502162738 | 6 | 297 | 11.3 | 22.5 | 0.00 | 0.00 | 0.00 | 38 | 1017.9 |
| 20260502162234 | 6 | 285 | 14.5 | 17.7 | 0.00 | 0.00 | 0.00 | 40 | 1017.8 |
| 20260502161731 | 7 | 264 | 12.9 | 14.5 | 0.00 | 0.00 | 0.00 | 41 | 1018.0 |
| 20260502161227 | 7 | 251 | 14.5 | 20.9 | 0.00 | 0.00 | 0.00 | 42 | 1018.2 |
| 20260502160726 | 7 | 280 | 8.0 | 12.9 | 0.00 | 0.00 | 0.00 | 42 | 1018.0 |
| 20260502160225 | 7 | 255 | 14.5 | 17.7 | 0.00 | 0.00 | 0.00 | 41 | 1018.1 |
| 20260502152149 | 6 | 284 | 6.4 | 8.0 | 0.00 | 0.00 | 0.00 | 45 | 1018.2 |
| 20260502151646 | 6 | 295 | 1.6 | 17.7 | 0.00 | 0.00 | 0.00 | 46 | 1018.2 |
| 20260502151143 | 6 | 311 | 4.8 | 14.5 | 0.00 | 0.00 | 0.00 | 46 | 1018.2 |
| 20260502150641 | 6 | 271 | 16.1 | 22.5 | 0.00 | 0.00 | 0.00 | 46 | 1018.2 |
| 20260502150137 | 6 | 227 | 12.9 | 16.1 | 0.00 | 0.00 | 0.00 | 48 | 1018.3 |
| 20260502130526 | 3 | 276 | 6.4 | 11.3 | 0.00 | 0.00 | 0.00 | 64 | 1018.8 |
| 20260502123509 | 2 | 187 | 4.8 | 8.0 | 0.00 | 0.00 | 0.00 | 81 | 1018.7 |
| 20260502123005 | 2 | 232 | 6.4 | 9.7 | 0.00 | 0.00 | 0.00 | 80 | 1018.8 |
| 20260502122501 | 2 | 253 | 4.8 | 4.8 | 0.00 | 0.00 | 0.00 | 81 | 1018.7 |
| 20260502121959 | 2 | 229 | 4.8 | 4.8 | 0.00 | 0.00 | 0.00 | 82 | 1018.9 |
| 20260502121456 | 1 | 216 | 3.2 | 4.8 | 0.00 | 0.00 | 0.00 | 86 | 1018.9 |
| 20260502120954 | 1 | 216 | 1.6 | 3.2 | 0.00 | 0.00 | 0.00 | 86 | 1018.6 |
| 20260502120450 | 1 | 207 | 3.2 | 3.2 | 0.00 | 0.00 | 0.00 | 85 | 1018.6 |
| 20260502115444 | 0 | 208 | 3.2 | 3.2 | 0.00 | 0.00 | 0.00 | 87 | 1018.9 |
| 20260502114940 | 0 | 212 | 1.6 | 3.2 | 0.00 | 0.00 | 0.00 | 89 | 1018.8 |
| 20260502114437 | 0 | 214 | 1.6 | 3.2 | 0.00 | 0.00 | 0.00 | 91 | 1018.8 |
| 20260502113935 | -1 | 221 | 0.0 | 0.0 | 0.00 | 0.00 | 0.00 | 93 | 1018.6 |
| 20260502113432 | -1 | 219 | 3.2 | 3.2 | 0.00 | 0.00 | 0.00 | 95 | 1018.8 |
| 20260502112931 | -1 | 221 | 1.6 | 3.2 | 0.00 | 0.00 | 0.00 | 97 | 1018.6 |
| 20260502112428 | -1 | 221 | 1.6 | 3.2 | 0.00 | 0.00 | 0.00 | 99 | 1018.6 |
| 20260502111925 | -1 | 221 | 1.6 | 1.6 | 0.00 | 0.00 | 0.00 | 98 | 1018.5 |
| 20260502111422 | -1 | 220 | 1.6 | 1.6 | 0.00 | 0.00 | 0.00 | 99 | 1018.8 |
| 20260502110920 | -2 | 220 | 1.6 | 3.2 | 0.00 | 0.00 | 0.00 | 99 | 1018.7 |
| 20260502110417 | -2 | 222 | 1.6 | 3.2 | 0.00 | 0.00 | 0.00 | 99 | 1018.5 |
| 20260502105914 | -2 | 228 | 1.6 | 3.2 | 0.00 | 0.00 | 0.00 | 99 | 1018.5 |
| 20260502105411 | -2 | 254 | 0.0 | 0.0 | 0.00 | 0.00 | 0.00 | 99 | 1018.5 |
| 20260502104909 | -2 | 256 | 0.0 | 0.0 | 0.00 | 0.00 | 0.00 | 99 | 1018.4 |
| 20260502104406 | -3 | 256 | 0.0 | 0.0 | 0.00 | 0.00 | 0.00 | 99 | 1018.7 |
| 20260502103904 | -3 | 256 | 1.6 | 1.6 | 0.00 | 0.00 | 0.00 | 99 | 1018.5 |
| 20260502103401 | -3 | 256 | 1.6 | 1.6 | 0.00 | 0.00 | 0.00 | 99 | 1018.6 |
| 20260502102858 | -2 | 256 | 1.6 | 3.2 | 0.00 | 0.00 | 0.00 | 99 | 1018.5 |
| 20260502102355 | -2 | 254 | 1.6 | 1.6 | 0.00 | 0.00 | 0.00 | 99 | 1018.7 |
| 20260502101852 | -2 | 254 | 1.6 | 1.6 | 0.00 | 0.00 | 0.00 | 99 | 1018.6 |
| 20260502101350 | -2 | 259 | 0.0 | 0.0 | 0.00 | 0.00 | 0.00 | 99 | 1018.4 |
| 20260502100848 | -3 | 259 | 0.0 | 0.0 | 0.00 | 0.00 | 0.00 | 99 | 1018.4 |
| 20260502100347 | -3 | 259 | 0.0 | 1.6 | 0.00 | 0.00 | 0.00 | 99 | 1018.6 |
| 20260502091321 | -2 | 259 | 0.0 | 0.0 | 0.00 | 0.00 | 0.00 | 99 | 1018.4 |
| 20260502090819 | -2 | 259 | 0.0 | 0.0 | 0.00 | 0.00 | 0.00 | 99 | 1018.3 |
| 20260502090315 | -2 | 259 | 0.0 | 0.0 | 0.00 | 0.00 | 0.00 | 99 | 1018.2 |
| 20260502071210 | -1 | 259 | 0.0 | 0.0 | 0.00 | 0.00 | 0.00 | 99 | 1018.0 |
| 20260502070709 | -1 | 259 | 0.0 | 0.0 | 0.00 | 0.00 | 0.00 | 99 | 1018.3 |
| 20260502070206 | -1 | 259 | 0.0 | 0.0 | 0.00 | 0.00 | 0.00 | 99 | 1018.1 |
| 20260502065704 | -1 | 259 | 0.0 | 0.0 | 0.00 | 0.00 | 0.00 | 99 | 1018.2 |
| 20260502065201 | -1 | 259 | 0.0 | 0.0 | 0.00 | 0.00 | 0.00 | 99 | 1018.3 |
| 20260502064700 | -1 | 259 | 0.0 | 0.0 | 0.00 | 0.00 | 0.00 | 99 | 1018.2 |
| 20260502064157 | -1 | 259 | 0.0 | 0.0 | 0.00 | 0.00 | 0.00 | 99 | 1018.2 |
| 20260502063655 | -1 | 259 | 0.0 | 0.0 | 0.00 | 0.00 | 0.00 | 99 | 1018.3 |
| 20260502063152 | -1 | 259 | 0.0 | 0.0 | 0.00 | 0.00 | 0.00 | 99 | 1018.2 |
| 20260502062649 | -1 | 259 | 0.0 | 0.0 | 0.00 | 0.00 | 0.00 | 99 | 1018.1 |
| 20260502062147 | -1 | 259 | 0.0 | 0.0 | 0.00 | 0.00 | 0.00 | 99 | 1018.1 |
| 20260502061645 | -1 | 259 | 0.0 | 0.0 | 0.00 | 0.00 | 0.00 | 99 | 1018.2 |
| 20260502061142 | -1 | 259 | 0.0 | 0.0 | 0.00 | 0.00 | 0.00 | 99 | 1018.2 |
| 20260502060642 | -1 | 259 | 0.0 | 0.0 | 0.00 | 0.00 | 0.00 | 99 | 1018.4 |
| 20260502060139 | -1 | 259 | 0.0 | 0.0 | 0.00 | 0.00 | 0.00 | 99 | 1018.2 |
| 20260502055637 | -1 | 259 | 0.0 | 0.0 | 0.00 | 0.00 | 0.00 | 99 | 1018.1 |
| 20260502055135 | -1 | 259 | 0.0 | 0.0 | 0.00 | 0.00 | 0.00 | 99 | 1018.0 |
| 20260502054634 | -1 | 259 | 0.0 | 0.0 | 0.00 | 0.00 | 0.00 | 99 | 1018.3 |
| 20260502054131 | -1 | 259 | 0.0 | 0.0 | 0.00 | 0.00 | 0.00 | 99 | 1018.3 |
| 20260502053628 | -1 | 259 | 0.0 | 0.0 | 0.00 | 0.00 | 0.00 | 99 | 1018.0 |
| 20260502053125 | -1 | 259 | 0.0 | 0.0 | 0.00 | 0.00 | 0.00 | 99 | 1018.2 |
| 20260502052623 | -1 | 259 | 0.0 | 0.0 | 0.00 | 0.00 | 0.00 | 99 | 1018.5 |
| 20260502052121 | -1 | 259 | 0.0 | 0.0 | 0.00 | 0.00 | 0.00 | 99 | 1018.3 |
| 20260502051619 | -1 | 259 | 0.0 | 0.0 | 0.00 | 0.00 | 0.00 | 99 | 1018.2 |
| 20260502051117 | -1 | 259 | 0.0 | 0.0 | 0.00 | 0.00 | 0.00 | 99 | 1018.5 |
| 20260502050613 | -1 | 259 | 0.0 | 0.0 | 0.00 | 0.00 | 0.00 | 99 | 1018.2 |
| 20260502050110 | -1 | 259 | 0.0 | 0.0 | 0.00 | 0.00 | 0.00 | 99 | 1018.0 |
| 20260502045606 | 0 | 259 | 0.0 | 0.0 | 0.00 | 0.00 | 0.00 | 99 | 1018.2 |
| 20260502045103 | 0 | 259 | 0.0 | 0.0 | 0.00 | 0.00 | 0.00 | 99 | 1018.1 |
| 20260502044559 | -1 | 259 | 0.0 | 0.0 | 0.00 | 0.00 | 0.00 | 99 | 1018.1 |
| 20260502044056 | 0 | 259 | 0.0 | 0.0 | 0.00 | 0.00 | 0.00 | 99 | 1018.1 |
| 20260502043554 | 0 | 259 | 0.0 | 0.0 | 0.00 | 0.00 | 0.00 | 99 | 1018.2 |
| 20260502043050 | 0 | 259 | 0.0 | 0.0 | 0.00 | 0.00 | 0.00 | 99 | 1018.3 |
| 20260502042545 | 0 | 259 | 0.0 | 0.0 | 0.00 | 0.00 | 0.00 | 99 | 1018.1 |
| 20260502042043 | 0 | 259 | 0.0 | 0.0 | 0.00 | 0.00 | 0.00 | 99 | 1018.3 |
| 20260502041540 | 0 | 259 | 0.0 | 0.0 | 0.00 | 0.00 | 0.00 | 99 | 1018.1 |
| 20260502041037 | 0 | 259 | 0.0 | 0.0 | 0.00 | 0.00 | 0.00 | 99 | 1018.2 |
| 20260502040534 | 0 | 259 | 0.0 | 0.0 | 0.00 | 0.00 | 0.00 | 98 | 1018.1 |
| 20260502040031 | 0 | 259 | 0.0 | 0.0 | 0.00 | 0.00 | 0.00 | 97 | 1018.1 |
| 20260502035527 | 0 | 260 | 0.0 | 0.0 | 0.00 | 0.00 | 0.00 | 96 | 1018.0 |
| 20260502035025 | 0 | 259 | 1.6 | 1.6 | 0.00 | 0.00 | 0.00 | 95 | 1018.0 |
| 20260502034522 | 0 | 259 | 1.6 | 1.6 | 0.00 | 0.00 | 0.00 | 95 | 1017.9 |
| 20260502034021 | 0 | 259 | 1.6 | 1.6 | 0.00 | 0.00 | 0.00 | 94 | 1018.4 |
| 20260502033518 | 1 | 260 | 1.6 | 1.6 | 0.00 | 0.00 | 0.00 | 93 | 1018.2 |
| 20260502033015 | 1 | 257 | 1.6 | 3.2 | 0.00 | 0.00 | 0.00 | 93 | 1018.2 |
| 20260502032511 | 1 | 256 | 1.6 | 3.2 | 0.00 | 0.00 | 0.00 | 93 | 1018.3 |
| 20260502032008 | 1 | 267 | 1.6 | 3.2 | 0.00 | 0.00 | 0.00 | 93 | 1018.0 |
| 20260502031506 | 1 | 274 | 3.2 | 4.8 | 0.00 | 0.00 | 0.00 | 92 | 1018.2 |
| 20260502031004 | 1 | 273 | 3.2 | 3.2 | 0.00 | 0.00 | 0.00 | 91 | 1018.3 |
| 20260502030502 | 1 | 273 | 1.6 | 3.2 | 0.00 | 0.00 | 0.00 | 90 | 1018.3 |
| 20260502030000 | 2 | 263 | 1.6 | 3.2 | 0.00 | 0.00 | 0.00 | 90 | 1018.3 |
| 20260502025457 | 2 | 267 | 3.2 | 3.2 | 0.00 | 0.00 | 0.00 | 90 | 1018.2 |
| 20260502024955 | 2 | 263 | 4.8 | 4.8 | 0.00 | 0.00 | 0.00 | 89 | 1018.4 |
| 20260502024452 | 2 | 257 | 3.2 | 4.8 | 0.00 | 0.00 | 0.00 | 89 | 1018.2 |
| 20260502023950 | 2 | 266 | 4.8 | 8.0 | 0.00 | 0.00 | 0.00 | 88 | 1018.1 |
| 20260502023447 | 2 | 251 | 4.8 | 8.0 | 0.00 | 0.00 | 0.00 | 88 | 1018.4 |
| 20260502022945 | 2 | 257 | 4.8 | 8.0 | 0.00 | 0.00 | 0.00 | 88 | 1018.3 |
| 20260502022441 | 2 | 263 | 3.2 | 8.0 | 0.00 | 0.00 | 0.00 | 88 | 1018.4 |